Location: Bukit Lungun
(2.6833°N, 113.9667°E)
Time: 10:32:32
(UTC+00:00)

BLOCK DM-SL R/B - Pass Details

Date: 02 March 2021
Orbit: 279 x 32532 km, 2.9° (Epoch: 20 April)

Event Time Altitude Azimuth Distance (km) Brightness Sun altitude
Rises 14:29:40 0° 272° (W) 14,990 9.5 -58.2°
Reaches altitude 10° 14:42:21 10° 272° (W) 16,865 9.6 -61.3°
Drops below altitude 10° 19:54:17 10° 270° (W) 34,782 10.4 -40.5°
Enters shadow 20:51:37 - 269° (W) 30,508 10.0 -26.3°
Exits shadow 22:06:37 - 267° (W) 19,194 8.9 -7.6°
Maximum altitude 23:03:34 61° 189° (S) 1,577 4.3 6.5°
Sets 23:09:16 0° 102° (ESE) 2,697 7.8 7.9°
